QPF
0.01 0.01 0.01 0.01 0.01 0.01 0.01 0.01 0.02 0.02 0.02 0.03 0.04 0.05 0.05 0.04 0.03 0.03 0.04 0.04 0.03 0.03 0.03 0.04 0.03 0.02 0.02 0.02 0.02 0.03 0.05 0.06 0.08 0.08 0.06 0.04 0.02 0.02 0.02 0.03 0.03 0.02 0.02 0.01
0.01 0.01 0.01 0.02 0.01 0.01 0.01 0.01 0.03 0.05 0.03 0.02 0.03 0.06 0.07 0.05 0.04 0.03 0.02 0.03 0.04 0.03 0.03 0.04 0.02 0.01 0.01 0.01 0.02 0.03 0.04 0.05 0.08 0.09 0.07 0.04 0.02 0.01 0.01 0.02 0.03 0.03 0.03 0.02
0.01 0.02 0.03 0.03 0.02 0.03 0.03 0.02 0.02 0.04 0.03 0.02 0.03 0.05 0.04 0.06 0.06 0.03 0.02 0.02 0.02 0.02 0.02 0.03 0.02 0.01 0.01 0.01 0.02 0.04 0.08 0.07 0.05 0.05 0.05 0.04 0.03 0.02 0.01 0.02 0.03 0.03 0.03 0.03
0.02 0.02 0.03 0.04 0.04 0.04 0.03 0.02 0.03 0.03 0.03 0.03 0.04 0.06 0.06 0.06 0.06 0.04 0.03 0.03 0.02 0.02 0.01 0.01 0.01 0.01 0.01 0.01 0.01 0.03 0.07 0.07 0.06 0.05 0.05 0.04 0.03 0.02 0.02 0.02 0.02 0.01 0.01 0.01
0.03 0.04 0.03 0.03 0.06 0.04 0.03 0.03 0.03 0.04 0.04 0.03 0.03 0.06 0.07 0.07 0.06 0.07 0.03 0.03 0.02 0.02 0.01 0.01 0.01 0.01 0.01 0.01 0.02 0.02 0.04 0.06 0.05 0.05 0.05 0.04 0.02 0.02 0.02 0.03 0.02 0.01 0.01 0.01
0.07 0.08 0.05 0.05 0.05 0.04 0.04 0.05 0.05 0.04 0.04 0.03 0.03 0.05 0.06 0.06 0.06 0.08 0.06 0.05 0.02 0.01 0.00 0.00 0.01 0.01 0.01 0.01 0.01 0.01 0.03 0.05 0.04 0.04 0.04 0.03 0.02 0.02 0.02 0.03 0.02 0.01 0.01 0.01
0.07 0.08 0.06 0.06 0.05 0.03 0.05 0.07 0.06 0.06 0.05 0.04 0.04 0.05 0.04 0.04 0.05 0.06 0.05 0.04 0.02 0.01 0.00 0.00 0.00 0.01 0.01 0.01 0.01 0.01 0.02 0.02 0.03 0.03 0.03 0.03 0.03 0.03 0.03 0.03 0.03 0.02 0.02 0.02
0.07 0.10 0.11 0.09 0.08 0.08 0.08 0.06 0.07 0.07 0.07 0.06 0.05 0.04 0.04 0.04 0.04 0.04 0.03 0.03 0.02 0.01 0.01 0.00 0.00 0.00 0.01 0.01 0.01 0.02 0.02 0.02 0.02 0.03 0.03 0.03 0.03 0.03 0.03 0.03 0.02 0.02 0.02 0.02
0.09 0.10 0.10 0.09 0.13 0.14 0.11 0.12 0.12 0.09 0.08 0.06 0.05 0.05 0.04 0.03 0.03 0.02 0.02 0.02 0.02 0.01 0.01 0.01 0.00 0.00 0.00 0.01 0.01 0.02 0.03 0.02 0.02 0.03 0.04 0.04 0.03 0.03 0.03 0.03 0.02 0.02 0.02 0.02
0.07 0.08 0.08 0.08 0.11 0.15 0.15 0.12 0.07 0.06 0.06 0.05 0.05 0.07 0.07 0.04 0.03 0.02 0.02 0.02 0.02 0.01 0.01 0.02 0.01 0.01 0.01 0.01 0.02 0.01 0.01 0.01 0.02 0.03 0.04 0.04 0.04 0.03 0.03 0.03 0.02 0.02 0.02 0.03
0.07 0.07 0.08 0.08 0.09 0.10 0.11 0.07 0.05 0.05 0.05 0.05 0.05 0.06 0.07 0.05 0.03 0.02 0.02 0.02 0.02 0.02 0.02 0.04 0.04 0.02 0.01 0.02 0.01 0.01 0.00 0.01 0.01 0.02 0.03 0.04 0.04 0.03 0.03 0.03 0.03 0.03 0.03 0.03
0.09 0.08 0.09 0.07 0.04 0.04 0.06 0.06 0.05 0.04 0.03 0.03 0.05 0.06 0.05 0.04 0.03 0.02 0.02 0.02 0.02 0.02 0.01 0.02 0.03 0.02 0.01 0.01 0.01 0.01 0.00 0.01 0.01 0.01 0.02 0.03 0.03 0.03 0.04 0.03 0.03 0.04 0.04 0.04
0.08 0.07 0.07 0.06 0.04 0.05 0.05 0.05 0.04 0.03 0.02 0.03 0.03 0.05 0.05 0.03 0.03 0.02 0.02 0.02 0.02 0.01 0.01 0.01 0.02 0.02 0.01 0.01 0.01 0.01 0.02 0.02 0.02 0.02 0.02 0.03 0.03 0.03 0.04 0.04 0.04 0.04 0.05 0.05
0.05 0.05 0.05 0.05 0.06 0.07 0.05 0.04 0.04 0.05 0.04 0.03 0.03 0.03 0.03 0.03 0.02 0.02 0.02 0.01 0.01 0.01 0.01 0.01 0.01 0.01 0.01 0.01 0.02 0.02 0.02 0.02 0.02 0.03 0.02 0.02 0.02 0.03 0.03 0.04 0.06 0.06 0.05 0.05
0.04 0.04 0.04 0.04 0.05 0.06 0.04 0.05 0.07 0.06 0.05 0.05 0.03 0.02 0.02 0.01 0.01 0.01 0.01 0.01 0.01 0.01 0.01 0.01 0.01 0.01 0.01 0.01 0.01 0.02 0.02 0.02 0.02 0.02 0.02 0.02 0.03 0.03 0.04 0.05 0.08 0.10 0.07 0.06
0.02 0.03 0.03 0.04 0.05 0.05 0.04 0.04 0.05 0.05 0.05 0.04 0.03 0.02 0.02 0.03 0.03 0.02 0.02 0.01 0.01 0.01 0.01 0.01 0.01 0.01 0.01 0.01 0.01 0.01 0.02 0.02 0.02 0.02 0.02 0.02 0.03 0.04 0.05 0.07 0.09 0.09 0.07 0.05
0.02 0.02 0.03 0.05 0.05 0.06 0.05 0.04 0.04 0.04 0.04 0.05 0.04 0.04 0.06 0.05 0.04 0.03 0.03 0.02 0.02 0.02 0.01 0.01 0.01 0.02 0.02 0.02 0.02 0.01 0.02 0.03 0.04 0.03 0.03 0.03 0.04 0.05 0.07 0.11 0.08 0.06 0.04 0.04
0.02 0.03 0.05 0.05 0.04 0.05 0.05 0.04 0.04 0.04 0.04 0.05 0.06 0.08 0.07 0.05 0.04 0.03 0.02 0.01 0.01 0.01 0.01 0.01 0.02 0.02 0.02 0.02 0.02 0.02 0.02 0.02 0.04 0.05 0.05 0.05 0.06 0.08 0.10 0.11 0.07 0.04 0.03 0.03
0.02 0.04 0.04 0.03 0.02 0.03 0.04 0.04 0.03 0.03 0.03 0.03 0.04 0.08 0.12 0.09 0.05 0.03 0.02 0.01 0.01 0.01 0.01 0.01 0.01 0.02 0.02 0.02 0.02 0.02 0.02 0.03 0.04 0.05 0.06 0.06 0.07 0.08 0.09 0.09 0.06 0.05 0.03 0.03
0.01 0.01 0.01 0.01 0.02 0.02 0.04 0.04 0.03 0.03 0.03 0.04 0.04 0.06 0.09 0.11 0.07 0.04 0.02 0.01 0.01 0.01 0.01 0.01 0.01 0.01 0.01 0.01 0.01 0.02 0.03 0.03 0.04 0.04 0.06 0.07 0.07 0.07 0.08 0.08 0.06 0.06 0.06 0.06
0.02 0.01 0.01 0.01 0.02 0.02 0.03 0.04 0.05 0.05 0.06 0.06 0.05 0.05 0.05 0.04 0.03 0.02 0.01 0.01 0.01 0.01 0.01 0.01 0.01 0.01 0.02 0.02 0.01 0.02 0.02 0.02 0.03 0.03 0.04 0.05 0.05 0.06 0.06 0.06 0.06 0.05 0.07 0.08
0.01 0.01 0.01 0.01 0.02 0.02 0.03 0.05 0.06 0.06 0.06 0.07 0.06 0.04 0.04 0.03 0.02 0.02 0.02 0.02 0.01 0.01 0.01 0.01 0.01 0.02 0.03 0.03 0.02 0.01 0.01 0.01 0.02 0.03 0.03 0.03 0.04 0.05 0.05 0.05 0.05 0.05 0.04 0.05
0.01 0.01 0.01 0.01 0.02 0.02 0.02 0.04 0.06 0.05 0.05 0.05 0.05 0.05 0.06 0.07 0.05 0.04 0.03 0.03 0.03 0.02 0.01 0.02 0.02 0.03 0.03 0.04 0.03 0.02 0.01 0.01 0.01 0.02 0.02 0.03 0.03 0.04 0.04 0.04 0.04 0.04 0.04 0.03
0.01 0.01 0.02 0.01 0.01 0.02 0.03 0.04 0.05 0.06 0.06 0.07 0.06 0.05 0.05 0.05 0.05 0.04 0.03 0.04 0.03 0.02 0.02 0.03 0.04 0.04 0.04 0.04 0.03 0.03 0.02 0.02 0.02 0.02 0.02 0.03 0.04 0.04 0.05 0.04 0.03 0.04 0.05 0.04
0.01 0.01 0.01 0.01 0.02 0.02 0.03 0.03 0.04 0.05 0.06 0.08 0.10 0.09 0.07 0.07 0.07 0.05 0.03 0.03 0.03 0.03 0.03 0.03 0.04 0.04 0.04 0.04 0.04 0.04 0.04 0.03 0.03 0.03 0.03 0.04 0.04 0.04 0.04 0.04 0.04 0.03 0.03 0.03
0.02 0.02 0.02 0.02 0.02 0.02 0.02 0.02 0.04 0.06 0.07 0.08 0.08 0.08 0.09 0.10 0.09 0.07 0.05 0.04 0.03 0.02 0.02 0.03 0.04 0.04 0.05 0.05 0.05 0.06 0.06 0.05 0.04 0.04 0.04 0.03 0.03 0.03 0.04 0.05 0.05 0.04 0.03 0.02
0.02 0.02 0.03 0.03 0.03 0.02 0.03 0.03 0.03 0.04 0.05 0.08 0.12 0.10 0.09 0.10 0.10 0.08 0.06 0.05 0.03 0.03 0.03 0.03 0.03 0.04 0.05 0.05 0.05 0.06 0.06 0.06 0.05 0.05 0.06 0.06 0.05 0.04 0.04 0.04 0.04 0.03 0.03 0.02
MSLP
1011.37 1011.19 1011.03 1010.87 1010.69 1010.45 1010.12 1009.69 1009.14 1008.52 1007.86 1007.23 1006.70 1006.33 1006.16 1006.22 1006.50 1006.97 1007.59 1008.31 1009.08 1009.85 1010.60 1011.32 1012.01 1012.69 1013.37 1014.06 1014.77 1015.47 1016.17 1016.83 1017.45 1018.01 1018.50 1018.91 1019.27 1019.59 1019.87 1020.12 1020.37 1020.60 1020.82 1021.02
1011.43 1011.18 1010.92 1010.65 1010.35 1010.01 1009.61 1009.17 1008.67 1008.14 1007.63 1007.15 1006.77 1006.52 1006.43 1006.50 1006.74 1007.12 1007.62 1008.21 1008.86 1009.54 1010.24 1010.95 1011.67 1012.41 1013.16 1013.94 1014.71 1015.48 1016.23 1016.93 1017.59 1018.18 1018.71 1019.18 1019.59 1019.96 1020.29 1020.59 1020.86 1021.10 1021.31 1021.49
1011.21 1010.87 1010.51 1010.14 1009.75 1009.35 1008.95 1008.53 1008.11 1007.71 1007.34 1007.02 1006.78 1006.64 1006.61 1006.70 1006.90 1007.20 1007.61 1008.09 1008.64 1009.26 1009.92 1010.64 1011.39 1012.18 1013.00 1013.83 1014.65 1015.46 1016.23 1016.96 1017.63 1018.24 1018.80 1019.31 1019.77 1020.19 1020.58 1020.92 1021.22 1021.48 1021.68 1021.84
1010.85 1010.40 1009.94 1009.48 1009.04 1008.62 1008.22 1007.86 1007.53 1007.25 1007.01 1006.82 1006.70 1006.64 1006.65 1006.74 1006.91 1007.15 1007.48 1007.90 1008.40 1008.98 1009.65 1010.38 1011.18 1012.02 1012.88 1013.75 1014.60 1015.42 1016.19 1016.90 1017.56 1018.17 1018.74 1019.27 1019.77 1020.24 1020.67 1021.05 1021.39 1021.66 1021.87 1022.02
1010.55 1009.97 1009.41 1008.88 1008.39 1007.95 1007.58 1007.27 1007.02 1006.82 1006.68 1006.58 1006.52 1006.51 1006.54 1006.61 1006.74 1006.95 1007.23 1007.61 1008.10 1008.69 1009.38 1010.16 1011.01 1011.91 1012.82 1013.71 1014.57 1015.37 1016.11 1016.78 1017.41 1017.99 1018.54 1019.07 1019.59 1020.08 1020.55 1020.97 1021.33 1021.63 1021.85 1022.00
1010.41 1009.71 1009.05 1008.45 1007.92 1007.48 1007.12 1006.84 1006.63 1006.49 1006.39 1006.32 1006.28 1006.27 1006.28 1006.32 1006.42 1006.59 1006.85 1007.23 1007.73 1008.36 1009.11 1009.96 1010.87 1011.83 1012.77 1013.69 1014.53 1015.31 1016.00 1016.63 1017.20 1017.73 1018.25 1018.77 1019.28 1019.78 1020.27 1020.72 1021.10 1021.42 1021.65 1021.81
1010.46 1009.65 1008.91 1008.25 1007.69 1007.23 1006.87 1006.60 1006.40 1006.25 1006.15 1006.06 1005.99 1005.94 1005.90 1005.90 1005.96 1006.10 1006.36 1006.75 1007.30 1007.99 1008.81 1009.74 1010.72 1011.73 1012.72 1013.65 1014.49 1015.24 1015.89 1016.46 1016.97 1017.46 1017.93 1018.42 1018.92 1019.42 1019.91 1020.37 1020.77 1021.10 1021.35 1021.52
1010.61 1009.73 1008.93 1008.22 1007.63 1007.15 1006.77 1006.47 1006.24 1006.06 1005.91 1005.78 1005.65 1005.53 1005.43 1005.38 1005.40 1005.53 1005.79 1006.22 1006.81 1007.57 1008.47 1009.47 1010.53 1011.60 1012.63 1013.58 1014.42 1015.14 1015.76 1016.29 1016.76 1017.20 1017.64 1018.10 1018.57 1019.06 1019.55 1020.01 1020.42 1020.76 1021.02 1021.20
1010.72 1009.78 1008.94 1008.20 1007.57 1007.06 1006.64 1006.30 1006.03 1005.79 1005.58 1005.38 1005.19 1005.01 1004.86 1004.77 1004.77 1004.90 1005.19 1005.65 1006.30 1007.12 1008.08 1009.15 1010.27 1011.39 1012.46 1013.43 1014.28 1015.01 1015.62 1016.13 1016.58 1016.99 1017.41 1017.84 1018.29 1018.77 1019.24 1019.69 1020.10 1020.45 1020.72 1020.92
1010.59 1009.63 1008.75 1007.97 1007.30 1006.74 1006.27 1005.88 1005.56 1005.27 1005.01 1004.77 1004.54 1004.34 1004.17 1004.08 1004.10 1004.25 1004.57 1005.08 1005.77 1006.65 1007.66 1008.78 1009.94 1011.10 1012.20 1013.20 1014.07 1014.81 1015.43 1015.96 1016.41 1016.82 1017.23 1017.65 1018.09 1018.54 1019.00 1019.44 1019.84 1020.18 1020.46 1020.68
1010.10 1009.10 1008.17 1007.34 1006.61 1005.99 1005.46 1005.03 1004.66 1004.35 1004.07 1003.83 1003.62 1003.45 1003.33 1003.30 1003.38 1003.59 1003.97 1004.54 1005.28 1006.19 1007.23 1008.37 1009.55 1010.72 1011.84 1012.86 1013.76 1014.53 1015.18 1015.74 1016.22 1016.65 1017.07 1017.50 1017.93 1018.37 1018.80 1019.22 1019.61 1019.95 1020.24 1020.47
1009.17 1008.12 1007.12 1006.21 1005.40 1004.70 1004.11 1003.63 1003.24 1002.93 1002.69 1002.51 1002.39 1002.33 1002.33 1002.43 1002.62 1002.95 1003.43 1004.06 1004.85 1005.79 1006.83 1007.97 1009.13 1010.29 1011.40 1012.43 1013.35 1014.15 1014.84 1015.44 1015.97 1016.44 1016.89 1017.32 1017.75 1018.18 1018.59 1018.99 1019.36 1019.70 1019.99 1020.23
1007.90 1006.76 1005.66 1004.64 1003.72 1002.93 1002.27 1001.74 1001.35 1001.09 1000.93 1000.87 1000.90 1001.02 1001.21 1001.50 1001.88 1002.36 1002.96 1003.68 1004.52 1005.47 1006.50 1007.60 1008.73 1009.85 1010.93 1011.94 1012.86 1013.69 1014.42 1015.06 1015.63 1016.15 1016.62 1017.07 1017.50 1017.92 1018.31 1018.69 1019.05 1019.37 1019.66 1019.92
1006.47 1005.22 1003.99 1002.84 1001.79 1000.89 1000.15 999.59 999.21 999.00 998.96 999.06 999.29 999.63 1000.07 1000.58 1001.18 1001.85 1002.59 1003.41 1004.30 1005.26 1006.27 1007.31 1008.37 1009.43 1010.45 1011.43 1012.34 1013.17 1013.92 1014.60 1015.21 1015.76 1016.26 1016.72 1017.15 1017.55 1017.93 1018.29 1018.62 1018.93 1019.22 1019.49
1005.13 1003.76 1002.40 1001.10 999.92 998.91 998.08 997.48 997.11 996.96 997.04 997.31 997.75 998.33 999.01 999.78 1000.60 1001.47 1002.36 1003.28 1004.22 1005.18 1006.15 1007.13 1008.11 1009.08 1010.03 1010.95 1011.82 1012.63 1013.39 1014.09 1014.72 1015.30 1015.81 1016.28 1016.70 1017.09 1017.45 1017.78 1018.09 1018.39 1018.67 1018.95
1004.14 1002.66 1001.18 999.75 998.45 997.32 996.42 995.76 995.39 995.29 995.46 995.87 996.49 997.28 998.19 999.17 1000.20 1001.24 1002.27 1003.27 1004.25 1005.20 1006.13 1007.04 1007.94 1008.82 1009.68 1010.53 1011.35 1012.13 1012.87 1013.57 1014.21 1014.79 1015.31 1015.78 1016.19 1016.56 1016.89 1017.20 1017.49 1017.77 1018.05 1018.33
1003.65 1002.11 1000.56 999.04 997.64 996.42 995.44 994.73 994.33 994.24 994.45 994.95 995.69 996.62 997.69 998.83 1000.01 1001.17 1002.30 1003.37 1004.37 1005.31 1006.19 1007.03 1007.84 1008.64 1009.41 1010.19 1010.94 1011.68 1012.40 1013.07 1013.70 1014.28 1014.80 1015.25 1015.65 1016.00 1016.31 1016.59 1016.86 1017.12 1017.39 1017.67
1003.72 1002.19 1000.63 999.08 997.63 996.35 995.30 994.53 994.07 993.95 994.15 994.65 995.43 996.41 997.54 998.76 1000.01 1001.24 1002.41 1003.51 1004.51 1005.43 1006.27 1007.05 1007.79 1008.51 1009.21 1009.91 1010.61 1011.30 1011.98 1012.63 1013.24 1013.80 1014.30 1014.74 1015.12 1015.45 1015.73 1015.99 1016.24 1016.48 1016.74 1017.00
1004.27 1002.83 1001.33 999.82 998.39 997.09 995.99 995.16 994.63 994.42 994.54 994.98 995.69 996.62 997.72 998.91 1000.15 1001.37 1002.54 1003.62 1004.61 1005.50 1006.30 1007.04 1007.72 1008.38 1009.03 1009.68 1010.32 1010.97 1011.61 1012.22 1012.80 1013.34 1013.82 1014.24 1014.60 1014.91 1015.18 1015.42 1015.65 1015.88 1016.11 1016.36
1005.09 1003.81 1002.45 1001.04 999.67 998.40 997.29 996.40 995.78 995.47 995.46 995.75 996.33 997.13 998.11 999.20 1000.34 1001.49 1002.60 1003.64 1004.59 1005.45 1006.23 1006.94 1007.59 1008.22 1008.83 1009.44 1010.04 1010.65 1011.25 1011.83 1012.38 1012.89 1013.34 1013.74 1014.08 1014.38 1014.63 1014.86 1015.07 1015.28 1015.50 1015.73
1005.96 1004.88 1003.70 1002.45 1001.18 999.97 998.88 997.96 997.26 996.82 996.66 996.78 997.16 997.78 998.58 999.51 1000.51 1001.55 1002.57 1003.54 1004.44 1005.27 1006.03 1006.72 1007.37 1007.98 1008.57 1009.16 1009.74 1010.31 1010.87 1011.42 1011.93 1012.40 1012.83 1013.20 1013.52 1013.80 1014.05 1014.26 1014.47 1014.67 1014.87 1015.08
1006.66 1005.80 1004.82 1003.74 1002.62 1001.51 1000.45 999.52 998.76 998.21 997.89 997.83 998.02 998.42 999.02 999.76 1000.60 1001.50 1002.41 1003.30 1004.16 1004.96 1005.70 1006.40 1007.04 1007.66 1008.24 1008.81 1009.37 1009.92 1010.44 1010.94 1011.42 1011.85 1012.24 1012.59 1012.89 1013.15 1013.39 1013.60 1013.80 1013.99 1014.18 1014.38
1007.08 1006.42 1005.63 1004.74 1003.77 1002.76 1001.78 1000.86 1000.06 999.43 998.99 998.76 998.77 998.98 999.38 999.93 1000.61 1001.36 1002.17 1002.98 1003.79 1004.56 1005.30 1005.99 1006.64 1007.26 1007.85 1008.41 1008.95 1009.46 1009.95 1010.40 1010.83 1011.22 1011.57 1011.88 1012.16 1012.41 1012.63 1012.84 1013.04 1013.23 1013.41 1013.60
1007.20 1006.70 1006.08 1005.35 1004.53 1003.64 1002.74 1001.86 1001.06 1000.38 999.85 999.51 999.36 999.41 999.65 1000.04 1000.57 1001.20 1001.90 1002.64 1003.39 1004.14 1004.86 1005.55 1006.21 1006.83 1007.41 1007.96 1008.47 1008.95 1009.39 1009.79 1010.17 1010.51 1010.81 1011.09 1011.35 1011.58 1011.79 1012.00 1012.20 1012.39 1012.58 1012.76
1007.12 1006.73 1006.24 1005.64 1004.94 1004.17 1003.35 1002.54 1001.77 1001.08 1000.51 1000.09 999.85 999.78 999.88 1000.14 1000.54 1001.06 1001.67 1002.33 1003.03 1003.75 1004.45 1005.13 1005.78 1006.39 1006.95 1007.48 1007.96 1008.39 1008.79 1009.15 1009.47 1009.76 1010.02 1010.27 1010.49 1010.71 1010.92 1011.13 1011.33 1011.53 1011.72 1011.90
1006.98 1006.66 1006.24 1005.74 1005.14 1004.46 1003.74 1003.00 1002.28 1001.62 1001.05 1000.59 1000.29 1000.14 1000.15 1000.31 1000.60 1001.02 1001.54 1002.12 1002.76 1003.42 1004.08 1004.73 1005.36 1005.94 1006.49 1006.98 1007.42 1007.82 1008.17 1008.48 1008.76 1009.01 1009.24 1009.46 1009.66 1009.87 1010.08 1010.29 1010.51 1010.72 1010.92 1011.10
1006.92 1006.62 1006.25 1005.80 1005.28 1004.69 1004.05 1003.38 1002.73 1002.11 1001.56 1001.10 1000.77 1000.56 1000.50 1000.57 1000.77 1001.09 1001.51 1002.01 1002.57 1003.16 1003.76 1004.36 1004.94 1005.49 1006.00 1006.46 1006.87 1007.24 1007.56 1007.83 1008.08 1008.31 1008.52 1008.72 1008.92 1009.13 1009.35 1009.57 1009.80 1010.02 1010.24 1010.44
Thickness
5699 5707 5709 5708 5709 5711 5704 5698 5688 5692 5695 5700 5704 5706 5707 5706 5704 5701 5699 5697 5696 5694 5692 5691 5690 5689 5689 5687 5686 5685 5682 5679 5678 5676 5674 5672 5670 5668 5666 5664 5663 5661 5660 5660
5693 5704 5703 5701 5704 5705 5705 5703 5697 5696 5694 5706 5706 5704 5701 5700 5699 5696 5695 5693 5692 5691 5689 5687 5685 5684 5683 5682 5681 5680 5677 5675 5674 5671 5669 5667 5664 5662 5660 5659 5658 5657 5656 5655
5672 5689 5691 5680 5692 5696 5695 5697 5694 5686 5692 5700 5696 5695 5694 5695 5695 5693 5692 5690 5688 5687 5685 5683 5681 5680 5678 5677 5676 5674 5671 5669 5667 5665 5663 5662 5661 5657 5655 5654 5653 5652 5651 5651
5661 5669 5659 5676 5695 5696 5690 5689 5692 5692 5691 5692 5690 5690 5691 5691 5689 5687 5687 5686 5684 5682 5679 5677 5676 5674 5673 5672 5670 5667 5665 5662 5661 5659 5657 5656 5655 5652 5651 5649 5648 5647 5647 5647
5650 5651 5660 5675 5685 5685 5678 5674 5682 5682 5682 5684 5686 5684 5681 5685 5685 5684 5684 5682 5680 5678 5675 5672 5670 5668 5667 5665 5663 5661 5658 5657 5656 5654 5652 5650 5649 5647 5646 5644 5643 5643 5643 5643
5646 5644 5643 5660 5679 5687 5678 5661 5674 5675 5672 5673 5674 5663 5666 5676 5679 5679 5679 5677 5674 5671 5669 5666 5664 5662 5659 5657 5655 5654 5653 5652 5651 5649 5647 5645 5644 5642 5641 5640 5639 5640 5639 5639
5638 5637 5644 5660 5674 5677 5653 5652 5667 5668 5667 5666 5662 5660 5665 5670 5672 5673 5673 5672 5669 5666 5662 5660 5658 5656 5653 5651 5649 5650 5649 5648 5646 5644 5642 5641 5640 5638 5637 5635 5634 5634 5634 5635
5629 5626 5631 5656 5660 5652 5650 5659 5661 5662 5663 5663 5661 5663 5663 5664 5664 5665 5665 5664 5662 5658 5655 5654 5653 5651 5648 5646 5647 5646 5645 5642 5641 5639 5638 5638 5634 5633 5632 5631 5629 5628 5628 5629
5626 5626 5637 5647 5648 5652 5653 5652 5655 5657 5658 5658 5657 5656 5657 5656 5656 5657 5657 5655 5653 5652 5649 5648 5647 5646 5643 5643 5642 5641 5639 5637 5636 5634 5633 5632 5629 5628 5626 5626 5625 5624 5624 5624
5621 5627 5634 5639 5644 5647 5649 5649 5651 5653 5653 5653 5651 5651 5649 5648 5648 5648 5648 5647 5646 5645 5643 5641 5642 5641 5639 5638 5637 5635 5633 5631 5630 5628 5627 5626 5625 5624 5622 5621 5620 5620 5621 5621
5614 5622 5626 5632 5636 5640 5644 5647 5647 5647 5647 5648 5646 5645 5643 5641 5641 5641 5641 5640 5639 5638 5637 5637 5637 5635 5635 5633 5632 5629 5628 5626 5625 5623 5622 5621 5620 5619 5619 5620 5619 5618 5619 5618
5603 5613 5615 5621 5631 5635 5636 5639 5640 5639 5640 5642 5641 5638 5637 5635 5635 5634 5634 5633 5632 5631 5631 5631 5631 5630 5629 5629 5627 5625 5622 5621 5620 5619 5617 5616 5615 5615 5617 5617 5618 5617 5617 5617
5606 5613 5615 5620 5625 5629 5630 5632 5633 5633 5633 5634 5634 5634 5632 5629 5628 5628 5627 5627 5626 5626 5626 5626 5625 5625 5625 5624 5623 5621 5619 5617 5616 5615 5614 5612 5612 5611 5611 5612 5613 5613 5614 5614
5606 5609 5610 5614 5616 5621 5624 5627 5627 5627 5628 5628 5627 5627 5626 5624 5623 5621 5621 5622 5622 5621 5621 5620 5620 5620 5620 5620 5618 5617 5615 5614 5613 5612 5611 5610 5609 5609 5608 5607 5606 5608 5610 5610
5601 5604 5605 5609 5612 5615 5617 5619 5619 5618 5619 5619 5620 5621 5620 5618 5617 5617 5617 5618 5617 5615 5615 5615 5615 5615 5615 5615 5613 5612 5610 5609 5609 5608 5608 5607 5607 5606 5605 5605 5604 5603 5603 5604
5595 5599 5601 5603 5605 5608 5609 5610 5610 5610 5611 5612 5613 5614 5614 5613 5613 5612 5612 5612 5610 5609 5609 5609 5609 5610 5610 5609 5608 5607 5605 5605 5605 5604 5604 5603 5603 5602 5602 5601 5601 5601 5600 5600
5586 5589 5592 5595 5598 5601 5602 5603 5604 5604 5605 5606 5607 5609 5609 5607 5606 5605 5606 5607 5606 5605 5604 5604 5604 5604 5605 5604 5602 5602 5601 5601 5601 5600 5599 5599 5599 5599 5599 5598 5598 5598 5599 5599
5585 5586 5588 5590 5592 5594 5596 5598 5598 5598 5599 5601 5602 5602 5601 5600 5598 5599 5600 5600 5600 5599 5599 5599 5599 5599 5599 5599 5598 5597 5596 5595 5595 5595 5595 5596 5596 5596 5596 5596 5596 5597 5597 5596
5582 5583 5585 5587 5588 5588 5589 5590 5591 5592 5593 5595 5595 5594 5594 5593 5593 5593 5593 5592 5591 5591 5593 5594 5594 5594 5594 5594 5594 5593 5592 5591 5591 5591 5592 5592 5593 5593 5593 5594 5594 5595 5595 5593
5576 5578 5580 5581 5582 5582 5583 5584 5586 5586 5588 5589 5588 5587 5586 5587 5587 5586 5585 5584 5585 5586 5588 5588 5589 5589 5589 5590 5589 5588 5588 5588 5587 5587 5587 5588 5588 5589 5590 5591 5592 5592 5592 5591
5568 5571 5573 5574 5575 5577 5577 5578 5578 5580 5581 5581 5580 5579 5580 5581 5581 5581 5579 5578 5581 5583 5583 5584 5584 5584 5585 5585 5585 5585 5585 5584 5584 5584 5584 5584 5584 5585 5586 5587 5589 5589 5589 5589
5561 5562 5564 5566 5568 5569 5570 5571 5572 5573 5573 5574 5574 5574 5574 5574 5574 5574 5575 5575 5577 5578 5578 5579 5580 5580 5580 5580 5580 5581 5581 5581 5581 5580 5580 5580 5581 5581 5582 5583 5583 5585 5585 5585
5554 5555 5557 5558 5560 5561 5563 5564 5565 5565 5566 5566 5566 5567 5567 5567 5568 5567 5567 5570 5572 5573 5573 5574 5575 5575 5576 5576 5576 5576 5576 5577 5577 5577 5577 5577 5577 5578 5578 5578 5579 5580 5580 5581
5548 5550 5551 5552 5554 5554 5554 5556 5557 5559 5559 5560 5561 5561 5561 5561 5562 5563 5565 5566 5568 5568 5568 5569 5569 5570 5571 5571 5571 5571 5571 5571 5572 5573 5574 5573 5573 5573 5574 5574 5575 5576 5576 5577
5542 5543 5544 5545 5545 5546 5547 5548 5550 5552 5553 5553 5554 5555 5556 5556 5556 5558 5559 5560 5562 5562 5563 5564 5564 5565 5565 5565 5566 5566 5566 5567 5567 5567 5568 5568 5568 5569 5569 5570 5570 5571 5571 5571
5536 5536 5536 5538 5539 5539 5540 5541 5541 5543 5544 5545 5546 5547 5549 5550 5551 5552 5553 5554 5556 5557 5557 5558 5558 5559 5559 5559 5560 5560 5561 5561 5561 5562 5562 5563 5563 5564 5564 5565 5566 5566 5566 5566
5529 5530 5530 5531 5533 5534 5535 5535 5535 5536 5538 5538 5539 5540 5542 5544 5545 5546 5547 5548 5549 5550 5550 5550 5551 5551 5552 5552 5553 5554 5555 5555 5556 5556 5556 5557 5558 5558 5559 5559 5560 5560 5560 5561